This is the latest recevied weather packets stored in our database for station/object KK7ISX. If no packets are shown the sender has not sent any weather packets the latest 10 day(s).
| Time | Temp. | Humidity | Pressure | Rain* | Wind** | Luminosity | Snow |
|---|---|---|---|---|---|---|---|
| 1777874965 | 17.78° C | 47% | 1007.7 hPa | 0 mm | - | 0 W/m² | - |
| 1777874661 | 17.78° C | 47% | 1007.6 hPa | 0 mm | - | 0 W/m² | - |
| 1777874357 | 17.78° C | 46% | 1007.6 hPa | 0 mm | - | 0 W/m² | - |
| 1777874056 | 17.78° C | 46% | 1007.6 hPa | 0 mm | - | 0 W/m² | - |
| 1777873754 | 17.78° C | 46% | 1007.8 hPa | 0 mm | - | 0 W/m² | - |
| 1777873450 | 17.78° C | 46% | 1007.8 hPa | 0 mm | - | 0 W/m² | - |
| 1777873147 | 17.78° C | 47% | 1007.8 hPa | 0 mm | - | 0 W/m² | - |
| 1777872843 | 17.78° C | 48% | 1007.9 hPa | 0 mm | - | 0 W/m² | - |
| 1777872541 | 17.78° C | 48% | 1007.9 hPa | 0 mm | - | 0 W/m² | - |
| 1777872238 | 18.33° C | 48% | 1007.7 hPa | 0 mm | - | 0 W/m² | - |
| 1777871935 | 18.33° C | 48% | 1007.7 hPa | 0 mm | - | 0 W/m² | - |
| 1777871631 | 18.33° C | 48% | 1007.7 hPa | 0 mm | - | 0 W/m² | - |
| 1777871323 | 18.33° C | 48% | 1008 hPa | 0 mm | - | 0 W/m² | - |
| 1777871021 | 18.33° C | 47% | 1007.7 hPa | 0 mm | - | 0 W/m² | - |
| 1777870718 | 18.33° C | 48% | 1007.8 hPa | 0 mm | - | 0 W/m² | - |
| 1777870418 | 18.89° C | 47% | 1007.9 hPa | 0 mm | - | 0 W/m² | - |
| 1777870115 | 18.89° C | 46% | 1007.7 hPa | 0 mm | - | 0 W/m² | - |
| 1777869812 | 18.33° C | 47% | 1007.7 hPa | 0 mm | - | 0 W/m² | - |
| 1777869510 | 18.89° C | 46% | 1007.7 hPa | 0 mm | - | 0 W/m² | - |
| 1777869206 | 18.89° C | 46% | 1007.8 hPa | 0 mm | - | 0 W/m² | - |
| 1777868904 | 19.44° C | 44% | 1007.6 hPa | 0 mm | - | 0 W/m² | - |
| 1777868600 | 20° C | 44% | 1007.9 hPa | 0 mm | - | 0 W/m² | - |
| 1777868296 | 20° C | 43% | 1007.8 hPa | 0 mm | - | 0 W/m² | - |
| 1777867992 | 20.56° C | 42% | 1007.7 hPa | 0 mm | - | 0 W/m² | - |
| 1777867689 | 20.56° C | 41% | 1007.6 hPa | 0 mm | - | 0 W/m² | - |
* Rain latest hour (hover to see other rain measurements)
** Current wind speed in m/s (hover to see current wind gust speed)